• In Österreich
  • Länderverzeichnis
  • Für 7 Tage
  • Wassertemperatur
  • Satellitenkarten
  • Wetterkarte
  • News
  • Widgets
  • user-avatar
    Anmelden

    Stündliche Wetter San Miguel de Tucumán

    Heute, 24 September, Montag

    Zeit Temperatur Niederschläge Wind Luftdruck Luftfeuchtigkeit
    00:00 +26°C° 1.5 mm 2 m/S 718 mmHg 76%
    01:00 +25°C° 1.5 mm 2 m/S 718 mmHg 80%
    02:00 +25°C° 1.5 mm 2 m/S 719 mmHg 85%
    03:00 +24°C° 1.3 mm 2 m/S 719 mmHg 85%
    04:00 +22°C° 1.3 mm 3 m/S 719 mmHg 86%
    05:00 +22°C° 1.3 mm 3 m/S 719 mmHg 86%
    06:00 +22°C° 0.1 mm 3 m/S 720 mmHg 83%
    07:00 +21°C° 0.1 mm 3 m/S 720 mmHg 80%
    08:00 +21°C° 0.1 mm 3 m/S 721 mmHg 77%
    09:00 +22°C° 0 mm 3 m/S 721 mmHg 69%
    10:00 +24°C° 0 mm 3 m/S 721 mmHg 60%
    11:00 +26°C° 0 mm 3 m/S 721 mmHg 52%
    12:00 +26°C° 0 mm 3 m/S 720 mmHg 50%
    13:00 +27°C° 0 mm 3 m/S 719 mmHg 48%
    14:00 +27°C° 0 mm 3 m/S 718 mmHg 46%
    15:00 +27°C° 0 mm 2 m/S 718 mmHg 47%
    16:00 +26°C° 0 mm 2 m/S 718 mmHg 48%
    17:00 +26°C° 0 mm 2 m/S 717 mmHg 49%
    18:00 +25°C° 0 mm 1 m/S 718 mmHg 53%
    19:00 +24°C° 0 mm 1 m/S 718 mmHg 56%
    20:00 +23°C° 0 mm 1 m/S 718 mmHg 60%
    21:00 +22°C° 0 mm 1 m/S 719 mmHg 61%
    22:00 +22°C° 0 mm 1 m/S 719 mmHg 63%
    23:00 +21°C° 0 mm 1 m/S 719 mmHg 65%

    Morgen, 25 September, Dienstag

    Zeit Temperatur Niederschläge Wind Luftdruck Luftfeuchtigkeit
    00:00 +20°C° 0 mm 1 m/S 719 mmHg 67%
    01:00 +20°C° 0 mm 1 m/S 718 mmHg 69%
    02:00 +19°C° 0 mm 1 m/S 718 mmHg 71%
    03:00 +19°C° 0 mm 1 m/S 718 mmHg 74%
    04:00 +18°C° 0 mm 1 m/S 718 mmHg 76%
    05:00 +18°C° 0 mm 1 m/S 717 mmHg 78%
    06:00 +19°C° 0 mm 1 m/S 718 mmHg 75%
    07:00 +20°C° 0 mm 1 m/S 718 mmHg 72%
    08:00 +21°C° 0 mm 1 m/S 719 mmHg 69%
    09:00 +23°C° 0 mm 2 m/S 719 mmHg 62%
    10:00 +25°C° 0 mm 2 m/S 719 mmHg 54%
    11:00 +27°C° 0 mm 2 m/S 719 mmHg 47%
    12:00 +28°C° 0 mm 2 m/S 718 mmHg 44%
    13:00 +29°C° 0 mm 2 m/S 717 mmHg 41%
    14:00 +30°C° 0 mm 2 m/S 716 mmHg 39%
    15:00 +29°C° 0 mm 2 m/S 716 mmHg 40%
    16:00 +29°C° 0 mm 2 m/S 715 mmHg 42%
    17:00 +28°C° 0 mm 2 m/S 715 mmHg 43%
    18:00 +27°C° 0 mm 1 m/S 715 mmHg 50%
    19:00 +25°C° 0 mm 1 m/S 716 mmHg 57%
    20:00 +21°C° 0 mm 0 m/S 716 mmHg 63%
    21:00 +23°C° 0 mm 1 m/S 717 mmHg 65%
    22:00 +22°C° 0 mm 1 m/S 717 mmHg 68%
    23:00 +22°C° 0 mm 1 m/S 717 mmHg 70%

    übermorgen, 26 September, Mittwoch

    Zeit Temperatur Niederschläge Wind Luftdruck Luftfeuchtigkeit
    00:00 +22°C° 0 mm 1 m/S 717 mmHg 72%
    01:00 +19°C° 0 mm 0 m/S 716 mmHg 74%
    02:00 +19°C° 0 mm 0 m/S 716 mmHg 77%
    03:00 +19°C° 0 mm 0 m/S 716 mmHg 77%
    04:00 +18°C° 0 mm 0 m/S 716 mmHg 78%
    05:00 +20°C° 0 mm 1 m/S 715 mmHg 78%
    06:00 +21°C° 0 mm 1 m/S 716 mmHg 76%
    07:00 +22°C° 0 mm 1 m/S 717 mmHg 75%
    08:00 +23°C° 0 mm 1 m/S 717 mmHg 73%
    09:00 +24°C° 0 mm 1 m/S 717 mmHg 71%
    10:00 +25°C° 0 mm 2 m/S 717 mmHg 68%
    11:00 +26°C° 0 mm 2 m/S 717 mmHg 66%
    12:00 +26°C° 0 mm 2 m/S 717 mmHg 63%
    13:00 +27°C° 0 mm 2 m/S 716 mmHg 59%
    14:00 +28°C° 0 mm 2 m/S 715 mmHg 56%
    15:00 +28°C° 0 mm 2 m/S 715 mmHg 57%
    16:00 +28°C° 0 mm 2 m/S 714 mmHg 58%
    17:00 +28°C° 0 mm 2 m/S 714 mmHg 59%
    18:00 +26°C° 0 mm 2 m/S 714 mmHg 65%
    19:00 +25°C° 0 mm 2 m/S 715 mmHg 70%
    20:00 +24°C° 0 mm 1 m/S 715 mmHg 76%
    21:00 +24°C° 0 mm 1 m/S 716 mmHg 78%
    22:00 +23°C° 0 mm 1 m/S 716 mmHg 79%
    23:00 +23°C° 0 mm 1 m/S 716 mmHg 81%

    27 September, Donnerstag

    Zeit Temperatur Niederschläge Wind Luftdruck Luftfeuchtigkeit
    00:00 +22°C° 0 mm 1 m/S 716 mmHg 83%
    01:00 +22°C° 0 mm 1 m/S 716 mmHg 85%
    02:00 +21°C° 0 mm 1 m/S 715 mmHg 87%
    03:00 +21°C° 0 mm 1 m/S 715 mmHg 87%
    04:00 +21°C° 0 mm 1 m/S 715 mmHg 86%
    05:00 +21°C° 0 mm 1 m/S 715 mmHg 85%
    06:00 +22°C° 0 mm 1 m/S 716 mmHg 82%
    07:00 +23°C° 0 mm 1 m/S 716 mmHg 78%
    08:00 +23°C° 0 mm 1 m/S 717 mmHg 75%
    09:00 +24°C° 0 mm 2 m/S 717 mmHg 71%
    10:00 +25°C° 0 mm 2 m/S 717 mmHg 68%
    11:00 +26°C° 0 mm 2 m/S 716 mmHg 65%
    12:00 +27°C° 0 mm 2 m/S 716 mmHg 63%
    13:00 +28°C° 0 mm 2 m/S 715 mmHg 60%
    14:00 +28°C° 0 mm 2 m/S 714 mmHg 58%
    15:00 +28°C° 0 mm 2 m/S 714 mmHg 59%
    16:00 +28°C° 0 mm 2 m/S 714 mmHg 59%
    17:00 +28°C° 0 mm 2 m/S 714 mmHg 60%
    18:00 +27°C° 0 mm 1 m/S 715 mmHg 66%
    19:00 +26°C° 0 mm 1 m/S 715 mmHg 72%
    20:00 +24°C° 0 mm 1 m/S 716 mmHg 77%
    21:00 +24°C° 0 mm 1 m/S 716 mmHg 79%
    22:00 +24°C° 0 mm 1 m/S 717 mmHg 80%
    23:00 +23°C° 0 mm 1 m/S 717 mmHg 81%

    28 September, Freitag

    Zeit Temperatur Niederschläge Wind Luftdruck Luftfeuchtigkeit
    00:00 +23°C° 0 mm 1 m/S 717 mmHg 83%
    01:00 +23°C° 0 mm 1 m/S 716 mmHg 85%
    02:00 +22°C° 0 mm 1 m/S 716 mmHg 86%
    03:00 +22°C° 0 mm 1 m/S 716 mmHg 85%
    04:00 +22°C° 0 mm 1 m/S 716 mmHg 84%
    05:00 +22°C° 0 mm 1 m/S 716 mmHg 83%
    06:00 +23°C° 0.1 mm 1 m/S 717 mmHg 81%
    07:00 +23°C° 0.1 mm 1 m/S 718 mmHg 79%
    08:00 +24°C° 0.1 mm 1 m/S 718 mmHg 78%
    09:00 +26°C° 0 mm 1 m/S 718 mmHg 70%
    10:00 +28°C° 0 mm 2 m/S 717 mmHg 62%
    11:00 +30°C° 0 mm 2 m/S 717 mmHg 54%
    12:00 +31°C° 0 mm 2 m/S 716 mmHg 51%
    13:00 +33°C° 0 mm 3 m/S 715 mmHg 47%
    14:00 +34°C° 0 mm 3 m/S 714 mmHg 43%
    15:00 +34°C° 0 mm 3 m/S 714 mmHg 46%
    16:00 +33°C° 0 mm 4 m/S 713 mmHg 49%
    17:00 +32°C° 0 mm 4 m/S 713 mmHg 52%
    18:00 +30°C° 0 mm 3 m/S 713 mmHg 58%
    19:00 +29°C° 0 mm 2 m/S 714 mmHg 63%
    20:00 +27°C° 0 mm 2 m/S 714 mmHg 68%
    21:00 +27°C° 0 mm 2 m/S 714 mmHg 69%
    22:00 +26°C° 0 mm 2 m/S 713 mmHg 69%
    23:00 +26°C° 0 mm 2 m/S 713 mmHg 70%

    29 September, Samstag

    Zeit Temperatur Niederschläge Wind Luftdruck Luftfeuchtigkeit
    00:00 +26°C° 0 mm 2 m/S 713 mmHg 68%
    01:00 +26°C° 0 mm 2 m/S 712 mmHg 66%
    02:00 +25°C° 0 mm 2 m/S 712 mmHg 64%
    03:00 +25°C° 0 mm 2 m/S 712 mmHg 63%
    04:00 +24°C° 0 mm 2 m/S 711 mmHg 62%
    05:00 +24°C° 0 mm 2 m/S 711 mmHg 61%
    06:00 +26°C° 0 mm 2 m/S 712 mmHg 56%
    07:00 +27°C° 0 mm 2 m/S 712 mmHg 52%
    08:00 +29°C° 0 mm 2 m/S 712 mmHg 48%
    09:00 +31°C° 0 mm 2 m/S 712 mmHg 42%
    10:00 +35°C° 0 mm 2 m/S 712 mmHg 35%
    11:00 +38°C° 0 mm 2 m/S 711 mmHg 29%
    12:00 +39°C° 0 mm 2 m/S 711 mmHg 26%
    13:00 +40°C° 0 mm 3 m/S 710 mmHg 23%
    14:00 +43°C° 0 mm 3 m/S 709 mmHg 20%
    15:00 +42°C° 0 mm 3 m/S 709 mmHg 21%
    16:00 +42°C° 0 mm 3 m/S 709 mmHg 23%
    17:00 +40°C° 0 mm 3 m/S 708 mmHg 25%
    18:00 +38°C° 0 mm 3 m/S 709 mmHg 29%
    19:00 +35°C° 0 mm 2 m/S 709 mmHg 33%
    20:00 +32°C° 0 mm 2 m/S 710 mmHg 37%
    21:00 +31°C° 0 mm 2 m/S 710 mmHg 38%
    22:00 +30°C° 0 mm 2 m/S 710 mmHg 39%
    23:00 +29°C° 0 mm 2 m/S 711 mmHg 40%
    Mehr zeigen